I2HLY-3 Weather Reports


Display with metric or nautical units.
time (UTC)temp
F
wind
direction
speed
MPH
gust
MPH
rain 1hr
in
rain 24hr
in
rain mn
in
humidity
%
barometer
mb
20221006150222 72 156 1.0 2.0 0.00 0.00 0.00 64 1025.4
20221006144720 72 156 1.0 3.0 0.00 0.00 0.00 64 1025.5
20221006143237 73 156 3.0 6.0 0.00 0.00 0.00 64 1025.4
20221006141738 73 94 1.0 6.0 0.00 0.00 0.00 65 1025.3
20221006140237 72 252 1.0 6.0 0.00 0.00 0.00 67 1025.3
20221006134737 72 155 0.0 3.0 0.00 0.00 0.00 66 1025.3
20221006133235 72 338 2.0 4.0 0.00 0.00 0.00 65 1025.4
20221006131731 72 117 2.0 5.0 0.00 0.00 0.00 66 1025.5
20221006130224 72 182 4.0 6.0 0.00 0.00 0.00 69 1025.5
20221006124723 72 72 1.0 5.0 0.00 0.00 0.00 70 1025.6
20221006123222 71 53 1.0 2.0 0.00 0.00 0.00 69 1025.8
20221006121721 71 170 1.0 6.0 0.00 0.00 0.00 71 1025.9
20221006120238 71 189 1.0 7.0 0.00 0.00 0.00 72 1026.2
20221006114718 71 119 1.0 4.0 0.00 0.00 0.00 72 1026.2
20221006113234 71 238 3.0 5.0 0.00 0.00 0.00 72 1026.5
20221006111730 69 178 3.0 4.0 0.00 0.00 0.00 77 1026.6
20221006110230 69 181 3.0 4.0 0.00 0.00 0.00 78 1026.7
20221006104730 68 163 3.0 6.0 0.00 0.00 0.00 79 1026.7
20221006103226 68 159 3.0 6.0 0.00 0.00 0.00 79 1026.8
20221006101724 67 76 1.0 4.0 0.00 0.00 0.00 81 1026.9
20221006100223 67 83 2.0 7.0 0.00 0.00 0.00 80 1026.9
20221006094722 66 51 2.0 5.0 0.00 0.00 0.00 82 1027.0
20221006093222 66 82 3.0 5.0 0.00 0.00 0.00 83 1027.0
20221006091727 64 150 1.0 6.0 0.00 0.00 0.00 85 1027.0
20221006090226 64 99 2.0 5.0 0.00 0.00 0.00 86 1027.0
20221006084723 63 148 2.0 6.0 0.00 0.00 0.00 88 1026.9
20221006083226 61 113 2.0 4.0 0.00 0.00 0.00 96 1026.8
20221006081724 60 205 0.0 1.0 0.00 0.00 0.00 97 1026.7
20221006080223 60 205 0.0 1.0 0.00 0.00 0.00 97 1026.6
20221006074722 59 205 1.0 2.0 0.00 0.00 0.00 97 1026.4
20221006073221 58 205 0.0 0.0 0.00 0.00 0.00 97 1026.4
20221006071740 57 205 0.0 0.0 0.00 0.00 0.00 97 1026.3
20221006070217 56 205 0.0 0.0 0.00 0.00 0.00 97 1026.2
20221006064721 55 205 0.0 1.0 0.00 0.00 0.00 97 1026.0
20221006063221 54 247 0.0 0.0 0.00 0.00 0.00 97 1025.8
20221006061719 53 247 0.0 1.0 0.00 0.00 0.00 97 1025.7
20221006060219 52 185 0.0 1.0 0.00 0.00 0.00 96 1025.5
20221006054737 51 185 0.0 1.0 0.00 0.00 0.00 96 1025.5
20221006053234 51 184 0.0 1.0 0.00 0.00 0.00 96 1025.3
20221006051736 52 185 0.0 0.0 0.00 0.00 0.00 96 1025.3
20221006050233 52 184 0.0 0.0 0.00 0.00 0.00 96 1025.2
20221006044734 52 185 0.0 0.0 0.00 0.00 0.00 96 1025.1
20221006043231 52 185 0.0 2.0 0.00 0.00 0.00 96 1025.0
20221006041728 52 184 0.0 0.0 0.00 0.00 0.00 96 1025.0
20221006040224 52 184 0.0 1.0 0.00 0.00 0.00 96 1024.9
20221006034724 52 184 0.0 0.0 0.00 0.00 0.00 96 1025.0
20221006033223 52 184 0.0 1.0 0.00 0.00 0.00 96 1024.9
20221006031720 52 185 0.0 0.0 0.00 0.00 0.00 96 1024.9
20221006030237 52 184 0.0 0.0 0.00 0.00 0.00 96 1024.9
20221006024718 52 184 0.0 0.0 0.00 0.00 0.00 96 1024.8
20221006023218 53 184 0.0 0.0 0.00 0.00 0.00 96 1024.9
20221006021717 53 185 0.0 0.0 0.00 0.00 0.00 96 1024.8
20221006020221 53 184 0.0 1.0 0.00 0.00 0.00 96 1024.9
20221006014718 53 184 0.0 1.0 0.00 0.00 0.00 96 1025.0
20221006013218 53 184 0.0 1.0 0.00 0.00 0.00 96 1025.0
20221006011717 53 184 0.0 0.0 0.00 0.00 0.00 95 1025.0
20221006010220 53 184 0.0 1.0 0.00 0.00 0.00 95 1025.1
20221006004719 54 185 0.0 1.0 0.00 0.00 0.00 95 1025.0
20221006003219 54 184 0.0 0.0 0.00 0.00 0.00 95 1025.1
20221006001722 54 184 0.0 0.0 0.00 0.00 0.00 95 1025.1
20221006000219 54 184 0.0 1.0 0.00 0.00 0.00 95 1025.1
20221005234735 54 185 0.0 0.0 0.00 0.00 0.00 95 1025.2
20221005233237 55 184 0.0 0.0 0.00 0.00 0.00 95 1025.4
20221005231734 55 184 0.0 0.0 0.00 0.00 0.00 95 1025.4
20221005230235 55 184 0.0 0.0 0.00 0.00 0.00 95 1025.4
20221005223233 56 184 0.0 1.0 0.00 0.00 0.00 95 1025.6
20221005221733 56 184 0.0 0.0 0.00 0.00 0.00 95 1025.6
20221005220228 56 184 0.0 1.0 0.00 0.00 0.00 94 1025.7
20221005214729 56 184 0.0 2.0 0.00 0.00 0.00 95 1025.9
20221005213225 57 184 0.0 1.0 0.00 0.00 0.00 94 1026.0
20221005211722 57 184 0.0 1.0 0.00 0.00 0.00 94 1026.0
20221005210222 57 184 0.0 0.0 0.00 0.00 0.00 94 1026.2
20221005204718 58 184 0.0 0.0 0.00 0.00 0.00 94 1026.2
20221005203237 58 184 0.0 0.0 0.00 0.00 0.00 93 1026.0
20221005201719 58 184 0.0 0.0 0.00 0.00 0.00 93 1026.0
20221005200218 59 184 0.0 2.0 0.00 0.00 0.00 93 1025.9
20221005194735 59 184 1.0 2.0 0.00 0.00 0.00 92 1025.8
20221005193231 59 184 0.0 1.0 0.00 0.00 0.00 92 1025.7
20221005191734 60 184 0.0 0.0 0.00 0.00 0.00 90 1025.7
20221005190230 60 184 0.0 0.0 0.00 0.00 0.00 90 1025.6
20221005184726 61 184 0.0 1.0 0.00 0.00 0.00 89 1025.7
20221005183225 62 184 1.0 2.0 0.00 0.00 0.00 87 1025.5
20221005181722 63 184 0.0 2.0 0.00 0.00 0.00 86 1025.4
20221005180218 64 184 0.0 0.0 0.00 0.00 0.00 84 1025.4
20221005174721 65 184 0.0 0.0 0.00 0.00 0.00 82 1025.3
20221005173236 66 184 0.0 0.0 0.00 0.00 0.00 80 1025.2
20221005171731 67 184 0.0 0.0 0.00 0.00 0.00 78 1025.2
20221005170230 67 184 0.0 1.0 0.00 0.00 0.00 76 1025.0
20221005164729 68 184 1.0 1.0 0.00 0.00 0.00 75 1024.9
20221005163225 69 184 0.0 0.0 0.00 0.00 0.00 71 1024.8
20221005161720 70 184 0.0 1.0 0.00 0.00 0.00 69 1024.7
20221005160221 71 184 0.0 0.0 0.00 0.00 0.00 64 1024.7
20221005154717 72 184 0.0 2.0 0.00 0.00 0.00 60 1024.6
20221005153232 72 184 0.0 1.0 0.00 0.00 0.00 62 1024.5
20221005151729 72 184 0.0 1.0 0.00 0.00 0.00 63 1024.5